Weather reports worldwide

Advertisment
Romorantin, France (7247): temperature & dewpoint: 16.02.2019 22:00:00 - 22.02.2019 22:00:00 (CET)Romorantin, France (7247): temperature 5cm: 16.02.2019 22:00:00 - 22.02.2019 22:00:00 (CET)Romorantin, France (7247): temperature -20cm & temperature -100cm: 16.02.2019 22:00:00 - 22.02.2019 22:00:00 (CET)Romorantin, France (7247): wind speed & gusts: 16.02.2019 22:00:00 - 22.02.2019 22:00:00 (CET)Romorantin, France (7247): wind direction: 16.02.2019 22:00:00 - 22.02.2019 22:00:00 (CET)Romorantin, France (7247): reduced air pressure: 16.02.2019 22:00:00 - 22.02.2019 22:00:00 (CET)Romorantin, France (7247): visibility: 16.02.2019 22:00:00 - 22.02.2019 22:00:00 (CET)Romorantin, France (7247): precipitation: 16.02.2019 22:00:00 - 22.02.2019 22:00:00 (CET)
Date & Time tt [°C] td [°C] tt 5cm [°C] tt -20cm [°C] tt -100cm [°C] ff [km/h] ff [kn] fx [km/h] fx [kn] dd ppp [hPa] vv [km] rr [mm]
22.02.2019 22:00:00 4,3 3,3 1,4 7,7 7,8 4 2 10 5 NE 1033,3 20 0,0
22.02.2019 21:00:00 6,9 4,2 2,5 7,7 7,8 0 0 4 2 N 1033,3 20 0,0
22.02.2019 20:00:00 8,4 4,4 4,4 7,6 7,8 2 1 8 4 ENE 1033,3 20 0,0
22.02.2019 19:00:00 14,2 5,3 8,8 7,4 7,8 5 3 12 6 NE 1032,9 20 0,0
22.02.2019 18:00:00 17,7 5,6 16,5 7,2 7,8 11 6 25 13 ENE 1032,5 20 0,0
22.02.2019 17:00:00 19,6 5,6 21,2 7,0 7,8 13 7 24 13 NE 1032,4 20 0,0
22.02.2019 16:00:00 20,1 4,9 24,3 6,7 7,8 10 5 20 11 ENE 1032,7 20 0,0
22.02.2019 15:00:00 20,0 5,2 25,6 6,4 7,8 4 2 11 6 S 1033,2 18 0,0
22.02.2019 14:00:00 19,0 5,8 24,1 6,2 7,8 3 1 10 5 NW 1033,7 20 0,0
22.02.2019 13:00:00 17,6 5,8 21,2 6,1 7,8 6 3 22 12 SE 1034,0 18 0,0
22.02.2019 12:00:00 15,9 6,6 17,0 6,0 7,8 8 5 16 8 E 1034,3 17 0,0
22.02.2019 11:00:00 12,2 6,2 10,5 6,0 7,8 4 2 10 5 ENE 1034,9 19 0,0
22.02.2019 10:00:00 6,8 4,6 4,0 6,1 7,8 9 5 12 7 ENE 1035,0 16 0,0
22.02.2019 09:00:00 1,3 1,3 -4,7 6,2 7,8 0 0 5 3 N 1035,3 8 0,0
22.02.2019 08:00:00 -2,8 -3,2 -5,3 6,4 7,8 0 0 5 3 N 1034,9 5 0,0
22.02.2019 07:00:00 -1,6 -1,7 -5,2 6,5 7,8 0 0 3 2 N 1034,2 7 0,0
22.02.2019 06:00:00 -2,5 -2,8 -5,0 6,6 7,8 0 0 5 3 N 1034,0 8 0,0
22.02.2019 05:00:00 -1,9 -1,9 -4,8 6,7 7,8 0 0 2 1 N 1033,4 0,3 0,0
22.02.2019 04:00:00 -1,8 -1,9 -4,5 6,8 7,7 0 0 0 0 N 1033,1 0,7 0,0
22.02.2019 03:00:00 -1,8 -2,4 -3,9 7,0 7,8 0 0 3 2 N 1033,3 3,3 0,0
22.02.2019 02:00:00 -1,1 -1,4 -3,7 7,0 7,8 0 0 0 0 N 1033,0 1,1 0,0
22.02.2019 01:00:00 -0,1 -0,4 -2,9 7,2 7,8 0 0 0 0 N 1033,0 0,5 0,0
22.02.2019 00:00:00 1,0 0,9 -2,2 7,2 7,7 0 0 0 0 N 1032,8 0,3 0,0
21.02.2019 23:00:00 1,2 0,6 -1,8 7,3 7,7 0 0 0 0 N 1032,6 2,1 0,0
21.02.2019 22:00:00 3,1 2,5 -0,4 7,4 7,8 0 0 0 0 N 1031,9 15 0,0
21.02.2019 21:00:00 4,4 2,9 0,9 7,4 7,7 0 0 3 2 N 1031,3 20 0,0
21.02.2019 20:00:00 6,1 4,3 1,7 7,3 7,7 0 0 3 1 N 1030,8 20 0,0
21.02.2019 19:00:00 9,1 4,9 5,4 7,1 7,7 2 1 4 2 ENE 1030,2 20 0,0
21.02.2019 18:00:00 15,2 5,7 11,9 7,0 7,8 0 0 7 4 N 1029,1 20 0,0
21.02.2019 17:00:00 17,7 5,6 18,7 6,7 7,7 4 2 14 8 SSW 1028,8 20 0,0
21.02.2019 16:00:00 18,4 5,9 23,0 6,4 7,7 6 4 16 9 WSW 1028,5 18 0,0
21.02.2019 15:00:00 18,0 5,6 23,3 6,2 7,7 10 5 17 9 SW 1028,5 20 0,0
21.02.2019 14:00:00 17,0 6,8 22,7 6,0 7,7 10 5 18 10 SSW 1028,7 19 0,0
21.02.2019 13:00:00 16,2 6,3 20,7 5,9 7,7 4 2 9 5 S 1029,1 17 0,0
21.02.2019 12:00:00 14,4 6,5 15,9 5,8 7,7 3 2 9 5 S 1029,4 18 0,0
21.02.2019 11:00:00 10,6 6,3 9,3 5,9 7,7 5 3 10 6 S 1029,3 18 0,0
21.02.2019 10:00:00 5,6 4,4 0,9 5,9 7,7 0 0 6 3 N 1029,3 6 0,0
21.02.2019 09:00:00 -0,5 -0,6 -4,4 6,0 7,7 0 0 3 2 N 1029,0 6 0,0
21.02.2019 08:00:00 -2,4 -2,5 -5,3 6,1 7,7 0 0 3 2 N 1028,5 6 0,0
21.02.2019 07:00:00 -2,5 -2,6 -5,1 6,2 7,7 0 0 6 4 N 1028,0 3,8 0,0
21.02.2019 06:00:00 -1,9 -2,0 -4,9 6,4 7,7 0 0 4 2 N 1027,7 6 0,0
21.02.2019 05:00:00 -2,1 -2,4 -4,4 6,5 7,7 0 0 4 2 N 1027,5 0,4 0,0
21.02.2019 04:00:00 -1,7 -2,4 -4,0 6,5 7,7 0 0 7 4 N 1027,4 5 0,0
21.02.2019 03:00:00 -1,6 -1,9 -4,1 6,7 7,7 0 0 3 2 N 1027,2 3,0 0,0
21.02.2019 02:00:00 -0,2 -0,2 -3,4 6,8 7,7 0 0 3 1 N 1027,0 10 0,0
21.02.2019 01:00:00 0,3 0,3 -2,7 6,9 7,7 0 0 6 4 N 1026,8 10 0,0
21.02.2019 00:00:00 -0,3 -0,4 -2,8 6,9 7,7 3 2 4 2 ESE 1026,3 0,2 0,0
20.02.2019 23:00:00 0,7 0,6 -2,0 7,0 7,7 0 0 0 0 N 1026,3 0,4 0,0
20.02.2019 22:00:00 0,5 -0,6 -1,7 7,1 7,7 0 0 2 1 N 1025,9 0,4 0,0
20.02.2019 21:00:00 3,9 3,8 -0,5 7,1 7,7 0 0 4 2 N 1025,4 19 0,0
20.02.2019 20:00:00 4,6 3,1 1,0 7,0 7,7 0 0 5 3 N 1025,2 20 0,0
20.02.2019 19:00:00 7,8 4,7 4,0 6,9 7,7 0 0 4 2 N 1024,7 20 0,0
20.02.2019 18:00:00 13,2 5,8 10,3 6,7 7,7 3 1 14 8 S 1024,2 20 0,0
20.02.2019 17:00:00 15,0 6,3 17,2 6,5 7,7 6 4 22 12 S 1023,9 20 0,0
20.02.2019 16:00:00 15,4 5,9 17,4 6,3 7,7 12 6 22 12 S 1023,9 20 0,0
20.02.2019 15:00:00 14,8 7,1 18,9 6,1 7,7 10 5 19 10 S 1024,0 18 0,0
20.02.2019 14:00:00 13,8 7,1 18,7 5,9 7,7 5 3 11 6 WSW 1024,3 20 0,0
20.02.2019 13:00:00 11,0 7,7 10,5 5,9 7,7 2 1 9 5 S 1024,9 13 0,0
20.02.2019 12:00:00 6,4 6,1 7,1 5,9 7,7 4 2 8 5 SSW 1025,5 7 0,0
20.02.2019 11:00:00 4,3 4,3 4,8 5,9 7,7 4 2 8 4 S 1025,2 0,4 0,0
20.02.2019 10:00:00 2,9 2,9 2,4 5,9 7,7 2 1 5 3 ESE 1024,9 0,2 0,0
20.02.2019 09:00:00 1,3 1,3 0,9 5,9 7,7 2 1 3 2 NE 1024,3 0,1 0,0
20.02.2019 08:00:00 0,6 0,6 0,3 6,0 7,7 0 0 4 2 N 1023,5 0,1 0,0
20.02.2019 07:00:00 0,5 0,5 0,1 6,0 7,7 0 0 2 1 N 1023,0 0,1 0,0
20.02.2019 06:00:00 0,1 0,1 0,0 6,1 7,7 0 0 0 0 N 1022,9 0,1 0,0
20.02.2019 05:00:00 0,1 0,1 -0,7 6,2 7,7 0 0 0 0 N 1022,9 0,1 0,0
20.02.2019 04:00:00 0,4 0,4 -0,7 6,3 7,7 0 0 2 1 N 1023,0 1,2 0,0
20.02.2019 03:00:00 -0,7 -0,7 -2,5 6,4 7,7 2 1 4 2 ENE 1023,4 1,2 0,0
20.02.2019 02:00:00 -0,4 -0,4 -2,5 6,5 7,7 0 0 2 1 N 1023,6 0,4 0,0
20.02.2019 01:00:00 0,1 0,1 -2,4 6,5 7,7 0 0 0 0 N 1023,6 0,4 0,0
20.02.2019 00:00:00 -0,9 -1,0 -3,2 6,6 7,7 0 0 0 0 N 1023,5 0,4 0,0
19.02.2019 23:00:00 -0,2 -0,3 -2,7 6,7 7,7 0 0 0 0 N 1023,4 0,5 0,0
19.02.2019 22:00:00 0,3 -0,1 -2,3 6,7 7,7 0 0 0 0 N 1023,3 0,4 0,0
19.02.2019 21:00:00 2,3 2,2 -1,1 6,7 7,6 0 0 2 1 N 1022,9 0,2 0,0
19.02.2019 20:00:00 3,3 2,1 0,2 6,7 7,7 0 0 2 1 N 1023,0 0,2 0,0
19.02.2019 19:00:00 5,6 4,6 3,4 6,7 7,7 3 1 4 2 E 1022,5 18 0,0
19.02.2019 18:00:00 8,5 5,4 6,0 6,6 7,7 0 0 2 1 N 1022,1 20 0,0
19.02.2019 17:00:00 11,3 6,4 12,5 6,4 7,7 0 0 5 3 N 1022,1 20 0,0
19.02.2019 16:00:00 11,2 6,5 13,0 6,3 7,7 2 1 8 4 SE 1022,3 19 0,0
19.02.2019 15:00:00 11,5 7,2 13,7 6,2 7,7 3 1 7 4 N 1022,5 17 0,0
19.02.2019 14:00:00 10,4 7,1 11,8 6,1 7,7 4 2 8 4 SSE 1022,9 15 0,0
19.02.2019 13:00:00 9,5 6,9 10,8 6,1 7,7 2 1 6 3 SSE 1023,6 11 0,0
19.02.2019 12:00:00 8,9 6,9 9,7 6,0 7,6 0 0 5 3 N 1024,0 8 0,0
19.02.2019 11:00:00 8,1 6,7 8,3 6,0 7,7 0 0 9 5 N 1023,9 7 0,0
19.02.2019 10:00:00 7,3 6,6 6,4 6,0 7,7 6 3 8 5 SSE 1023,5 7 0,0
19.02.2019 09:00:00 6,2 5,9 5,4 6,0 7,7 2 1 3 2 ESE 1023,2 5 0,0
19.02.2019 08:00:00 5,6 5,2 5,0 6,0 7,7 0 0 5 3 N 1022,5 8 0,0
19.02.2019 07:00:00 5,8 4,9 5,0 6,0 7,7 0 0 3 2 N 1021,9 11 0,0
19.02.2019 06:00:00 6,1 4,7 5,0 6,0 7,7 0 0 5 3 N 1021,9 12 0,0
19.02.2019 05:00:00 5,5 4,3 4,4 6,1 7,7 2 1 6 3 WNW 1021,5 18 0,0
19.02.2019 04:00:00 4,3 3,1 4,0 6,1 7,7 5 3 7 4 SSW 1021,7 20 0,0
19.02.2019 03:00:00 3,9 2,6 2,1 6,2 7,7 0 0 3 2 N 1021,6 20 0,0
19.02.2019 02:00:00 2,7 2,1 -0,4 6,2 7,7 0 0 6 3 N 1021,5 20 0,0
19.02.2019 01:00:00 2,0 0,7 -1,1 6,4 7,7 0 0 7 4 N 1021,3 20 0,0
19.02.2019 00:00:00 2,8 0,5 -1,2 6,4 7,7 2 1 11 6 WSW 1020,2 20 0,0
18.02.2019 23:00:00 2,9 1,7 -0,5 6,5 7,7 2 1 10 5 SE 1019,7 20 0,0
18.02.2019 22:00:00 2,3 0,8 -0,8 6,5 7,7 0 0 4 2 N 1019,3 20 0,0
18.02.2019 21:00:00 3,2 1,4 -0,2 6,5 7,7 0 0 4 2 N 1018,9 20 0,0
18.02.2019 20:00:00 5,3 2,1 1,5 6,4 7,7 3 1 4 2 S 1018,3 20 0,0
18.02.2019 19:00:00 8,8 2,1 3,7 6,3 7,7 0 0 11 6 N 1017,9 20 0,0
18.02.2019 18:00:00 14,6 3,1 11,7 6,1 7,7 8 4 26 14 SW 1017,1 20 0,0
18.02.2019 17:00:00 16,1 3,2 16,3 5,9 7,7 17 9 30 16 SSW 1017,0 20 0,0
18.02.2019 16:00:00 17,1 3,4 20,2 5,7 7,7 22 12 29 16 SW 1017,0 20 0,0
18.02.2019 15:00:00 16,8 3,8 20,9 5,4 7,7 16 8 31 17 S 1017,2 20 0,0
18.02.2019 14:00:00 16,0 3,1 19,9 5,2 7,7 15 8 27 14 S 1017,8 20 0,0
18.02.2019 13:00:00 15,0 2,8 16,8 5,1 7,7 16 8 28 15 S 1018,7 19 0,0
18.02.2019 12:00:00 12,7 1,4 16,2 5,1 7,7 10 6 22 12 S 1019,3 20 0,0
18.02.2019 11:00:00 11,0 1,0 11,1 5,1 7,7 6 4 12 7 SSE 1019,7 20 0,0
18.02.2019 10:00:00 5,0 0,4 3,4 5,1 7,7 0 0 3 2 N 1020,2 20 0,0
18.02.2019 09:00:00 -0,5 -1,3 -7,0 5,2 7,7 0 0 3 2 N 1020,4 16 0,0
18.02.2019 08:00:00 -4,3 -4,7 -7,2 5,4 7,7 0 0 3 2 N 1020,5 7 0,0
18.02.2019 07:00:00 -4,2 -4,6 -6,9 5,5 7,7 0 0 3 1 N 1020,3 8 0,0
18.02.2019 06:00:00 -3,9 -4,6 -6,4 5,6 7,7 0 0 3 2 N 1020,4 10 0,0
18.02.2019 05:00:00 -3,5 -3,9 -6,1 5,7 7,7 0 0 3 2 N 1020,3 12 0,0
18.02.2019 04:00:00 -3,5 -4,2 -6,0 5,9 7,7 0 0 3 1 N 1020,3 12 0,0
18.02.2019 03:00:00 -3,3 -4,6 -5,6 6,0 7,7 0 0 3 2 N 1020,7 20 0,0
18.02.2019 02:00:00 -2,9 -4,0 -5,3 6,1 7,7 0 0 4 2 N 1020,8 20 0,0
18.02.2019 01:00:00 -1,8 -3,4 -5,0 6,2 7,7 4 2 8 5 ENE 1020,9 20 0,0
18.02.2019 00:00:00 -1,5 -3,4 -4,9 6,3 7,7 0 0 4 2 N 1020,9 20 0,0
17.02.2019 23:00:00 0,1 -1,7 -3,8 6,4 7,7 0 0 5 3 N 1020,9 20 0,0
17.02.2019 22:00:00 0,2 -3,2 -3,6 6,5 7,7 0 0 2 1 N 1021,1 20 0,0
17.02.2019 21:00:00 1,0 -0,9 -2,2 6,5 7,7 2 1 4 2 E 1020,7 20 0,0
17.02.2019 20:00:00 4,1 -2,1 -0,4 6,5 7,7 0 0 5 3 N 1020,7 20 0,0
17.02.2019 19:00:00 8,2 -1,1 2,5 6,3 7,7 2 1 9 5 E 1020,1 20 0,0
17.02.2019 18:00:00 15,6 -1,9 11,1 6,1 7,7 8 4 20 11 SSW 1019,5 20 0,0
17.02.2019 17:00:00 18,5 -1,9 19,9 5,9 7,7 11 6 27 15 SW 1019,7 20 0,0
17.02.2019 16:00:00 18,7 -2,9 21,6 5,6 7,7 23 13 35 19 SSW 1020,0 20 0,0
17.02.2019 15:00:00 19,1 -3,8 23,3 5,4 7,7 15 8 32 17 WSW 1020,3 20 0,0
17.02.2019 14:00:00 19,1 -3,8 22,3 5,2 7,8 22 12 37 20 SSW 1020,6 20 0,0
17.02.2019 13:00:00 18,1 -3,4 19,6 5,1 7,7 16 9 30 16 SSW 1021,1 20 0,0
17.02.2019 12:00:00 15,6 -0,6 15,9 5,0 7,8 13 7 22 12 S 1021,7 20 0,0
17.02.2019 11:00:00 11,9 -2,0 11,8 5,0 7,7 9 5 16 8 S 1021,9 20 0,0
17.02.2019 10:00:00 6,7 1,0 0,5 5,1 7,7 2 1 5 3 E 1022,3 20 0,0
17.02.2019 09:00:00 -1,0 -1,6 -6,9 5,2 7,8 2 1 4 2 E 1022,7 19 0,0
17.02.2019 08:00:00 -4,7 -5,4 -7,3 5,3 7,8 0 0 7 4 N 1022,6 12 0,0
17.02.2019 07:00:00 -3,9 -4,3 -7,2 5,4 7,8 0 0 5 3 N 1022,4 13 0,0
17.02.2019 06:00:00 -3,7 -4,2 -7,2 5,5 7,8 3 2 5 3 ENE 1022,5 12 0,0
17.02.2019 05:00:00 -2,9 -3,0 -7,1 5,7 7,8 0 0 3 1 N 1022,5 14 0,0
17.02.2019 04:00:00 -3,1 -3,9 -6,4 5,8 7,8 0 0 2 1 N 1022,9 17 0,0
17.02.2019 03:00:00 -3,0 -3,7 -6,0 5,9 7,8 0 0 4 2 N 1023,2 11 0,0
17.02.2019 02:00:00 -2,5 -3,1 -5,2 6,0 7,8 0 0 3 2 N 1023,2 20 0,0
17.02.2019 01:00:00 -1,7 -2,3 -4,3 6,1 7,8 0 0 4 2 N 1023,5 20 0,0
17.02.2019 00:00:00 -1,1 -2,2 -4,1 6,2 7,8 0 0 2 1 N 1023,9 20 0,0
16.02.2019 23:00:00 -0,5 -0,9 -3,8 6,3 7,8 0 0 3 1 N 1024,6 20 0,0
16.02.2019 22:00:00 0,5 -0,2 -3,2 6,3 7,8 0 0 2 1 N 1025,0 20 0,0

tt = temperature
td = dewpoint
tt 5cm = temperature 5cm
tt -20cm = temperature -20cm
tt -100cm = temperature -100cm
ff = wind speed
fx = gusts
dd = wind direction
ppp = reduced air pressure
vv = visibility
rr = precipitation

Next stations